GW4435 Weather Reports


time (UTC)temp
C
wind
direction
speed
KPH
gust
KPH
rain 1hr
cm
rain 24hr
cm
rain mn
cm
humidity
%
barometer
mb
20260510121005 12 276 1.6 3.2 0.00 0.00 0.00 94 1016.2
20260510120504 12 13 4.8 9.7 0.00 0.00 0.00 93 1016.2
20260510120005 12 335 1.6 3.2 0.00 0.00 0.00 93 1016.0
20260510115504 12 263 0.0 3.2 0.00 0.00 0.00 92 1016.0
20260510115004 12 219 1.6 3.2 0.00 0.00 0.00 94 1015.8
20260510114504 12 201 0.0 4.8 0.00 0.00 0.00 94 1015.8
20260510114004 12 204 3.2 4.8 0.00 0.00 0.00 94 1015.8
20260510113504 12 333 0.0 0.0 0.00 0.00 0.00 94 1015.8
20260510113005 12 205 1.6 3.2 0.00 0.00 0.00 94 1015.8
20260510112504 12 13 3.2 4.8 0.00 0.00 0.00 94 1015.8
20260510112005 11 108 1.6 3.2 0.00 0.00 0.00 94 1015.6
20260510111504 11 90 0.0 1.6 0.00 0.00 0.00 94 1015.5
20260510111005 11 282 0.0 1.6 0.00 0.00 0.00 94 1015.5
20260510105504 11 342 1.6 3.2 0.00 0.00 0.00 94 1015.4
20260510105004 11 358 1.6 4.8 0.00 0.00 0.00 94 1015.5
20260510104504 11 317 3.2 4.8 0.00 0.00 0.00 94 1015.4
20260510103005 11 339 3.2 3.2 0.00 0.00 0.00 92 1015.1
20260510102504 11 42 1.6 3.2 0.00 0.00 0.00 93 1015.0
20260510102004 11 323 1.6 3.2 0.00 0.00 0.00 93 1014.9
20260510101004 11 323 1.6 4.8 0.00 0.00 0.00 94 1014.9
20260510100505 11 326 1.6 3.2 0.00 0.00 0.00 93 1014.8
20260510100005 11 335 3.2 4.8 0.00 0.00 0.00 92 1014.7
20260510095504 11 294 0.0 1.6 0.00 0.00 0.00 92 1014.6
20260510095004 11 84 1.6 3.2 0.00 0.00 0.00 92 1014.6
20260510094504 11 329 1.6 3.2 0.00 0.00 0.00 93 1014.6
20260510094004 11 354 0.0 3.2 0.00 0.00 0.00 93 1014.6
20260510093504 11 352 3.2 4.8 0.00 0.00 0.00 92 1014.6
20260510093004 12 340 3.2 4.8 0.00 0.00 0.00 92 1014.4
20260510092505 12 336 1.6 3.2 0.00 0.00 0.00 91 1014.4
20260510092004 12 196 1.6 3.2 0.00 0.00 0.00 91 1014.4
20260510091504 12 92 0.0 1.6 0.00 0.00 0.00 91 1014.5
20260510090506 12 220 0.0 0.0 0.00 0.00 0.00 90 1014.5
20260510090004 12 220 0.0 0.0 0.00 0.00 0.00 90 1014.5
20260510085504 12 216 1.6 3.2 0.00 0.00 0.00 90 1014.6
20260510085004 12 288 0.0 3.2 0.00 0.00 0.00 90 1014.6
20260510084504 12 15 1.6 3.2 0.00 0.00 0.00 90 1014.6
20260510084004 12 158 0.0 3.2 0.00 0.00 0.00 90 1014.6
20260510083504 11 181 1.6 3.2 0.00 0.00 0.00 91 1014.5
20260510083005 11 183 1.6 4.8 0.00 0.00 0.00 91 1014.5
20260510082504 11 323 0.0 1.6 0.00 0.00 0.00 92 1014.5
20260510082005 11 347 3.2 3.2 0.00 0.00 0.00 93 1014.5
20260510081504 11 77 1.6 4.8 0.00 0.00 0.00 93 1014.6
20260510081006 11 332 3.2 4.8 0.00 0.00 0.00 94 1014.4
20260510080504 10 298 3.2 4.8 0.00 0.00 0.00 95 1014.3
20260510080004 10 345 1.6 4.8 0.00 0.00 0.00 94 1014.3
20260510075504 11 338 3.2 4.8 0.00 0.00 0.00 94 1014.1
20260510075004 11 321 3.2 4.8 0.00 0.00 0.00 93 1013.9
20260510074505 11 326 1.6 4.8 0.00 0.00 0.00 92 1013.8
20260510074004 12 303 1.6 3.2 0.00 0.00 0.00 90 1013.8
20260510073504 12 323 0.0 1.6 0.00 0.00 0.00 91 1013.7
20260510073005 12 74 0.0 1.6 0.00 0.00 0.00 90 1013.6
20260510072504 12 300 1.6 3.2 0.00 0.00 0.00 90 1013.6
20260510071006 11 314 3.2 4.8 0.00 0.00 0.00 92 1013.8
20260510070504 11 334 3.2 4.8 0.00 0.00 0.00 92 1013.8
20260510065505 11 310 3.2 4.8 0.00 0.00 0.00 92 1013.8
20260510064505 11 335 3.2 4.8 0.00 0.00 0.00 92 1013.8
20260510064004 12 340 4.8 4.8 0.00 0.00 0.00 91 1013.8
20260510063005 12 347 1.6 3.2 0.00 0.00 0.00 91 1013.8
20260510062505 12 314 3.2 4.8 0.00 0.00 0.00 91 1013.9
20260510062004 12 328 3.2 4.8 0.00 0.00 0.00 90 1013.9
20260510061504 12 338 3.2 4.8 0.00 0.00 0.00 88 1014.0
20260510061004 13 339 3.2 4.8 0.00 0.00 0.00 86 1014.0
20260510060504 12 356 1.6 3.2 0.00 0.00 0.00 84 1014.0
20260510060005 12 298 0.0 1.6 0.00 0.00 0.00 89 1014.0
20260510055004 12 344 3.2 4.8 0.00 0.00 0.00 90 1014.0
20260510054505 13 344 1.6 3.2 0.00 0.00 0.00 86 1014.0
20260510054004 13 322 1.6 1.6 0.00 0.00 0.00 87 1014.0
20260510053004 13 340 1.6 3.2 0.00 0.00 0.00 88 1013.9
20260510052506 13 26 0.0 1.6 0.00 0.00 0.00 89 1013.9
20260510052004 13 198 1.6 3.2 0.00 0.00 0.00 89 1013.8
20260510051504 12 79 0.0 1.6 0.00 0.00 0.00 89 1013.8
20260510051004 12 38 1.6 4.8 0.00 0.00 0.00 89 1013.6
20260510045504 13 327 3.2 4.8 0.00 0.00 0.00 87 1013.8
20260510045005 13 331 1.6 3.2 0.00 0.00 0.00 86 1013.7
20260510044504 13 327 1.6 3.2 0.00 0.00 0.00 88 1013.6
20260510044005 13 329 1.6 4.8 0.00 0.00 0.00 87 1013.6
20260510043504 14 0 3.2 4.8 0.00 0.00 0.00 86 1013.5
20260510043005 15 336 3.2 4.8 0.00 0.00 0.00 79 1013.4
20260510042505 15 20 0.0 1.6 0.00 0.00 0.00 78 1013.3
20260510042004 15 142 0.0 3.2 0.00 0.00 0.00 75 1013.3
20260510041504 15 141 0.0 3.2 0.00 0.00 0.00 75 1013.3
20260510040504 15 201 1.6 3.2 0.00 0.00 0.00 80 1013.3
20260510040005 15 168 1.6 3.2 0.00 0.00 0.00 78 1013.3
20260510035504 15 177 0.0 3.2 0.00 0.00 0.00 80 1013.4
20260510035005 15 223 1.6 4.8 0.00 0.00 0.00 80 1013.4
20260510034504 15 140 3.2 4.8 0.00 0.00 0.00 79 1013.2
20260510034006 15 112 0.0 3.2 0.00 0.00 0.00 81 1013.0
20260510033504 15 196 0.0 3.2 0.00 0.00 0.00 81 1012.9
20260510033004 15 335 0.0 1.6 0.00 0.00 0.00 81 1013.0
20260510032504 16 321 1.6 3.2 0.00 0.00 0.00 81 1013.0
20260510032004 16 310 0.0 3.2 0.00 0.00 0.00 80 1013.0
20260510031504 16 345 1.6 3.2 0.00 0.00 0.00 80 1012.9
20260510031005 16 326 1.6 3.2 0.00 0.00 0.00 79 1012.8
20260510030504 16 317 3.2 4.8 0.00 0.00 0.00 80 1012.8
20260510030004 16 342 3.2 4.8 0.00 0.00 0.00 80 1012.7
20260510025505 16 328 3.2 4.8 0.00 0.00 0.00 79 1012.6
20260510025004 16 333 3.2 4.8 0.00 0.00 0.00 78 1012.5
20260510024504 17 329 3.2 4.8 0.00 0.00 0.00 77 1012.4
20260510024004 17 337 3.2 4.8 0.00 0.00 0.00 77 1012.4
20260510023504 17 335 3.2 4.8 0.00 0.00 0.00 75 1012.2
20260510023004 18 335 3.2 4.8 0.00 0.00 0.00 70 1012.2
20260510022505 18 161 1.6 3.2 0.00 0.00 0.00 65 1012.0
20260510022005 18 58 0.0 1.6 0.00 0.00 0.00 64 1011.9
20260510020504 20 106 0.0 1.6 0.00 0.00 0.00 61 1011.5
20260510020005 20 103 0.0 1.6 0.00 0.00 0.00 59 1011.1
20260510015505 21 86 0.0 1.6 0.00 0.00 0.00 57 1011.1
20260510014504 21 125 0.0 3.2 0.00 0.00 0.00 54 1011.1
20260510013006 21 120 1.6 3.2 0.00 0.00 0.00 52 1011.0
20260510012504 22 142 1.6 4.8 0.00 0.00 0.00 52 1011.0
20260510012004 22 149 3.2 4.8 0.00 0.00 0.00 52 1011.0
20260510011504 22 139 1.6 3.2 0.00 0.00 0.00 52 1010.9
20260510011004 22 126 0.0 3.2 0.00 0.00 0.00 52 1010.9
20260510010004 22 137 1.6 3.2 0.00 0.00 0.00 50 1010.9
20260510005505 23 150 3.2 4.8 0.00 0.00 0.00 50 1010.8
20260510005004 23 152 3.2 4.8 0.00 0.00 0.00 49 1010.8
20260510004004 23 160 3.2 4.8 0.00 0.00 0.00 48 1010.7
20260510003005 24 156 1.6 4.8 0.00 0.00 0.00 48 1010.7
20260510002505 24 145 0.0 3.2 0.00 0.00 0.00 49 1010.7
20260510002005 25 172 0.0 4.8 0.00 0.00 0.00 48 1010.7
20260510001504 25 167 1.6 4.8 0.00 0.00 0.00 48 1010.6
20260510001004 25 191 1.6 4.8 0.00 0.00 0.00 48 1010.6
20260510000004 25 185 1.6 4.8 0.00 0.00 0.00 46 1010.7
20260509235506 25 160 1.6 4.8 0.00 0.00 0.00 44 1010.8
20260509235005 26 175 3.2 8.0 0.00 0.00 0.00 47 1010.7
20260509234506 26 193 1.6 8.0 0.00 0.00 0.00 45 1010.8
20260509234004 26 192 1.6 8.0 0.00 0.00 0.00 44 1010.7
20260509233005 25 199 3.2 11.3 0.00 0.00 0.00 46 1010.7
20260509232505 25 189 4.8 14.5 0.00 0.00 0.00 44 1010.7
20260509232005 25 202 4.8 11.3 0.00 0.00 0.00 44 1010.7
20260509231504 26 210 0.0 9.7 0.00 0.00 0.00 50 1010.5
20260509231004 26 191 3.2 9.7 0.00 0.00 0.00 46 1010.6
20260509230504 26 174 3.2 9.7 0.00 0.00 0.00 45 1010.9
20260509230005 26 164 4.8 9.7 0.00 0.00 0.00 44 1010.8
20260509225505 26 167 4.8 11.3 0.00 0.00 0.00 43 1010.9
20260509225005 26 164 4.8 11.3 0.00 0.00 0.00 43 1010.9
20260509224505 26 161 4.8 9.7 0.00 0.00 0.00 42 1010.8
20260509223505 26 167 3.2 9.7 0.00 0.00 0.00 46 1010.5
20260509223006 26 165 1.6 4.8 0.00 0.00 0.00 46 1010.6
20260509222506 26 178 4.8 14.5 0.00 0.00 0.00 43 1010.8
20260509221505 26 269 1.6 4.8 0.00 0.00 0.00 40 1010.8
20260509221005 27 235 3.2 8.0 0.00 0.00 0.00 43 1010.7
20260509220004 27 264 3.2 9.7 0.00 0.00 0.00 38 1010.8
20260509214504 27 211 3.2 11.3 0.00 0.00 0.00 38 1011.0
20260509214004 27 251 1.6 4.8 0.00 0.00 0.00 37 1011.0
20260509213504 27 222 3.2 8.0 0.00 0.00 0.00 42 1010.9
20260509213004 26 241 3.2 4.8 0.00 0.00 0.00 42 1010.8
20260509212504 26 235 1.6 8.0 0.00 0.00 0.00 40 1010.8
20260509212004 27 262 3.2 4.8 0.00 0.00 0.00 40 1010.9
20260509211504 27 257 3.2 8.0 0.00 0.00 0.00 38 1011.0
20260509210505 27 227 3.2 8.0 0.00 0.00 0.00 37 1011.2
20260509210004 27 322 4.8 11.3 0.00 0.00 0.00 36 1011.3
20260509205506 27 218 4.8 11.3 0.00 0.00 0.00 36 1011.4
20260509205005 27 221 3.2 11.3 0.00 0.00 0.00 38 1011.4
20260509204505 27 164 3.2 11.3 0.00 0.00 0.00 35 1011.4
20260509204004 27 214 1.6 8.0 0.00 0.00 0.00 37 1011.3
20260509203504 26 232 1.6 4.8 0.00 0.00 0.00 40 1011.2
20260509203004 26 159 1.6 4.8 0.00 0.00 0.00 37 1011.5
20260509202504 26 164 1.6 8.0 0.00 0.00 0.00 36 1011.6
20260509202004 27 321 1.6 4.8 0.00 0.00 0.00 38 1011.6
20260509201505 27 27 3.2 12.9 0.00 0.00 0.00 38 1011.6
20260509201005 27 294 4.8 12.9 0.00 0.00 0.00 39 1011.6
20260509200504 27 280 4.8 11.3 0.00 0.00 0.00 38 1011.8
20260509195505 27 353 3.2 11.3 0.00 0.00 0.00 37 1012.0
20260509195005 27 80 1.6 9.7 0.00 0.00 0.00 36 1011.9
20260509194505 27 239 3.2 11.3 0.00 0.00 0.00 38 1012.0
20260509194005 27 232 3.2 9.7 0.00 0.00 0.00 39 1011.9
20260509193504 27 17 1.6 9.7 0.00 0.00 0.00 41 1011.8
20260509192505 26 258 3.2 8.0 0.00 0.00 0.00 38 1012.0
20260509192004 27 248 1.6 8.0 0.00 0.00 0.00 39 1012.0
20260509191507 26 258 1.6 8.0 0.00 0.00 0.00 40 1011.9
20260509191004 27 277 3.2 11.3 0.00 0.00 0.00 40 1012.0
20260509190504 26 341 4.8 12.9 0.00 0.00 0.00 40 1011.9
20260509190006 26 282 4.8 14.5 0.00 0.00 0.00 39 1011.9
20260509185504 27 266 3.2 14.5 0.00 0.00 0.00 37 1012.1
20260509185006 27 290 4.8 11.3 0.00 0.00 0.00 36 1012.2
20260509184504 27 261 3.2 9.7 0.00 0.00 0.00 37 1012.3
20260509183505 26 286 3.2 8.0 0.00 0.00 0.00 38 1012.2
20260509183004 26 273 1.6 11.3 0.00 0.00 0.00 37 1012.2
20260509181504 27 0 3.2 12.9 0.00 0.00 0.00 39 1012.1
20260509181004 27 356 3.2 9.7 0.00 0.00 0.00 37 1012.3
20260509180505 27 357 1.6 4.8 0.00 0.00 0.00 40 1012.3
20260509170005 24 142 3.2 11.3 0.00 0.00 0.00 47 1012.1
20260509165506 25 221 6.4 12.9 0.00 0.00 0.00 50 1012.1
20260509165005 24 311 1.6 9.7 0.00 0.00 0.00 49 1012.1
20260509164504 24 221 1.6 9.7 0.00 0.00 0.00 51 1012.1
20260509164004 24 268 3.2 8.0 0.00 0.00 0.00 53 1012.1
20260509163504 23 249 4.8 9.7 0.00 0.00 0.00 54 1012.1
20260509162504 23 251 3.2 9.7 0.00 0.00 0.00 60 1012.0
20260509162004 23 195 3.2 9.7 0.00 0.00 0.00 60 1012.0
20260509161504 23 268 1.6 8.0 0.00 0.00 0.00 61 1012.0
20260509161005 22 282 3.2 9.7 0.00 0.00 0.00 61 1012.0
20260509155505 22 316 3.2 8.0 0.00 0.00 0.00 63 1012.0
20260509155006 22 259 3.2 8.0 0.00 0.00 0.00 63 1012.0
20260509154504 21 14 1.6 8.0 0.00 0.00 0.00 67 1012.1
20260509154006 21 319 1.6 9.7 0.00 0.00 0.00 68 1012.1
20260509153004 21 314 3.2 9.7 0.00 0.00 0.00 70 1012.1
20260509152504 21 29 1.6 4.8 0.00 0.00 0.00 69 1012.0
20260509152004 20 322 3.2 8.0 0.00 0.00 0.00 71 1012.0
20260509151504 20 308 4.8 11.3 0.00 0.00 0.00 71 1012.0
20260509150504 20 40 3.2 9.7 0.00 0.00 0.00 74 1012.0
20260509150006 19 316 3.2 9.7 0.00 0.00 0.00 76 1012.1
20260509145504 18 258 3.2 9.7 0.00 0.00 0.00 77 1012.1
20260509145004 18 323 4.8 9.7 0.00 0.00 0.00 77 1012.1
20260509144504 18 285 3.2 9.7 0.00 0.00 0.00 78 1012.1
20260509144004 18 354 1.6 9.7 0.00 0.00 0.00 80 1012.2
20260509143005 17 305 4.8 11.3 0.00 0.00 0.00 81 1012.2
20260509142505 17 289 3.2 11.3 0.00 0.00 0.00 83 1012.2
20260509140505 16 355 3.2 9.7 0.00 0.00 0.00 85 1011.9
20260509140005 16 252 3.2 9.7 0.00 0.00 0.00 85 1011.9
20260509135008 16 181 3.2 8.0 0.00 0.00 0.00 86 1011.8
20260509134505 16 254 3.2 4.8 0.00 0.00 0.00 85 1011.8
20260509134005 17 303 3.2 9.7 0.00 0.00 0.00 84 1011.8
20260509133005 17 119 0.0 3.2 0.00 0.00 0.00 83 1011.7
20260509132505 17 58 1.6 8.0 0.00 0.00 0.00 83 1011.7
20260509132004 16 82 1.6 3.2 0.00 0.00 0.00 86 1011.6
20260509131506 15 5 0.0 4.8 0.00 0.00 0.00 89 1011.6
20260509131005 15 106 1.6 4.8 0.00 0.00 0.00 90 1011.6
20260509130504 15 193 3.2 4.8 0.00 0.00 0.00 90 1011.6
20260509130005 15 184 1.6 4.8 0.00 0.00 0.00 89 1011.6
20260509125506 13 128 1.6 1.6 0.00 0.00 0.00 94 1011.6
20260509125004 13 338 1.6 4.8 0.00 0.00 0.00 95 1011.5
20260509124505 12 55 0.0 3.2 0.00 0.00 0.00 97 1011.5
20260509124005 12 338 0.0 1.6 0.00 0.00 0.00 98 1011.4
20260509123505 11 68 0.0 3.2 0.00 0.00 0.00 99 1011.4
20260509123005 11 280 0.0 3.2 0.00 0.00 0.00 99 1011.4
20260509122505 10 306 1.6 3.2 0.00 0.00 0.00 99 1011.4
20260509121505 10 340 1.6 4.8 0.00 0.00 0.00 99 1011.2